Theta_e
310 310 311 311 312 313 314 314 314 315 328 338 338 335 337 337 334 336 337 336 337 334 332 328 326 327 328 330 330 325 322 316 308 304 300 300 300 300 301 302 302 301 300
305 305 306 308 309 310 312 313 313 314 315 330 334 335 335 336 335 335 338 336 337 336 335 333 329 325 326 327 329 325 319 311 308 304 302 305 301 299 299 301 301 300 299
305 305 303 304 306 307 308 310 312 312 313 315 329 335 335 335 334 334 332 336 336 337 336 335 332 328 323 326 329 326 322 309 306 306 307 304 309 300 297 298 299 299 298
306 306 305 305 305 306 306 307 309 310 312 313 326 332 332 333 333 333 332 334 334 335 335 335 333 330 327 324 328 327 322 316 308 301 304 302 302 303 300 295 297 297 297
307 308 307 305 307 308 309 307 307 308 309 310 313 327 331 332 332 332 332 333 333 333 334 334 333 332 330 327 325 325 319 316 312 308 301 297 297 297 298 298 295 295 296
308 308 307 307 308 308 309 310 309 308 307 309 311 320 330 331 331 332 332 332 332 332 332 331 331 329 329 329 327 323 321 315 312 312 311 305 299 297 295 296 294 294 293
309 309 308 307 308 309 309 309 309 309 309 309 308 309 314 326 330 330 330 330 328 328 330 330 329 329 328 325 323 320 319 315 310 311 310 305 301 300 297 295 291 292 290
309 309 308 307 308 309 310 309 309 310 310 311 310 310 309 310 314 322 327 328 329 328 327 326 325 325 325 322 321 319 313 311 309 308 307 301 298 297 297 296 293 292 291
308 309 307 307 308 308 309 308 309 310 311 310 312 313 312 312 311 311 314 319 325 327 326 325 322 321 319 318 315 317 311 309 309 307 300 298 295 294 294 294 294 295 294
310 309 308 308 307 307 308 307 308 308 309 309 311 312 313 313 313 313 313 315 319 322 322 321 320 318 316 313 311 310 307 307 303 299 296 293 294 293 292 291 290 291 290
310 308 307 307 305 304 304 304 305 306 307 308 310 311 312 313 313 314 315 316 316 316 317 317 316 314 312 311 309 306 303 300 296 293 293 292 291 291 291 290 290 291 291
306 303 303 303 300 299 299 301 302 304 305 306 308 309 308 309 308 310 311 311 312 313 314 312 310 307 306 305 303 298 296 294 292 292 291 290 291 291 292 292 292 292 291
302 302 301 298 296 297 298 298 298 299 301 303 305 306 307 307 307 307 307 307 306 305 305 304 301 299 298 296 295 294 292 292 291 291 291 291 292 292 292 291 290 288 287
299 298 296 295 294 295 295 295 296 296 296 298 298 298 299 300 300 300 299 298 298 298 296 296 294 294 293 293 292 292 292 292 292 292 293 293 292 291 289 288 287 286 286
298 295 295 294 294 294 294 294 294 293 294 294 294 294 295 295 295 296 295 295 295 294 294 293 292 292 292 292 293 294 294 293 293 292 292 291 289 287 287 287 288 287 287
297 294 294 293 294 294 294 294 293 293 293 293 293 293 293 293 293 292 292 292 292 292 292 292 292 293 294 295 295 294 293 293 292 290 286 284 284 285 286 286 286 287 287
296 294 292 292 294 295 294 294 294 294 293 293 293 292 292 292 292 291 292 291 292 292 293 293 294 293 293 292 292 292 289 286 285 284 283 284 284 284 284 284 285 285 286
295 293 292 292 293 293 294 294 294 293 293 292 292 292 292 291 291 291 291 291 291 292 292 292 292 291 290 289 287 286 286 284 284 284 284 284 284 283 284 285 285 285 285
293 293 292 292 292 292 293 293 293 292 292 292 291 291 292 291 292 292 292 292 292 291 290 290 289 289 288 286 285 285 285 284 284 284 284 283 283 283 285 285 285 285 283
294 294 293 293 293 292 292 292 292 292 291 291 291 291 291 291 291 291 291 290 289 289 289 288 287 288 288 287 287 285 285 284 284 283 283 282 283 284 285 285 284 282 282
293 294 293 293 292 292 292 291 291 291 291 291 291 291 291 291 291 290 290 290 287 284 283 283 285 286 287 287 286 285 284 284 283 283 283 282 283 284 283 283 282 281 283
293 294 293 293 292 292 292 291 290 290 291 291 291 291 291 291 289 286 284 283 283 283 282 282 282 282 283 284 285 285 284 284 283 283 282 282 282 281 281 281 282 283 282
292 292 293 292 292 291 292 291 291 291 291 291 290 289 286 285 284 284 284 284 283 283 282 281 281 281 281 282 283 283 283 283 282 282 282 281 280 279 280 280 281 280 280
292 292 292 292 292 292 292 292 292 291 291 287 285 284 284 284 283 283 282 282 281 281 280 280 280 281 282 282 282 282 282 282 281 281 280 278 279 279 279 280 280 279 279
293 293 293 293 292 292 292 292 292 290 286 285 284 284 283 283 282 283 283 282 281 281 281 281 281 281 281 282 283 282 282 281 281 280 278 278 279 279 279 279 279 279 279
291 292 292 292 292 293 293 292 289 288 286 284 284 283 283 283 283 284 284 284 284 283 283 282 282 281 282 282 282 281 281 280 280 278 277 277 277 278 278 278 278 279 279
Wind_Speed
9 16 21 22 22 23 23 23 25 30 27 25 26 25 28 33 32 35 36 34 35 35 33 35 34 34 34 32 29 27 25 21 20 14 8 9 11 12 14 16 17 16 16
9 12 14 15 16 20 21 24 24 25 32 26 27 25 27 26 33 27 31 36 36 37 35 36 37 37 35 32 33 32 26 22 24 10 5 3 6 13 16 18 18 17 17
8 11 12 10 10 13 16 20 24 26 26 31 29 24 23 23 21 28 31 34 40 39 38 38 38 39 38 38 38 37 35 24 27 20 7 3 4 4 10 16 18 19 19
8 7 11 14 15 14 9 11 17 22 24 24 25 25 24 24 27 28 35 31 35 39 41 40 41 41 40 40 41 40 40 33 26 24 22 10 4 3 3 9 17 20 20
7 8 9 12 18 18 18 9 7 11 17 21 25 28 26 26 28 29 29 32 36 37 41 42 43 43 43 43 43 42 41 41 30 29 14 16 9 5 3 3 6 15 19
8 7 10 12 19 21 20 16 14 8 6 12 17 26 23 25 23 30 30 32 35 36 38 40 43 43 44 44 45 44 42 41 36 34 25 19 8 9 7 2 2 6 10
8 9 11 15 22 25 22 20 15 14 11 8 7 15 24 26 27 28 30 23 27 31 36 38 41 44 45 42 40 40 40 41 38 32 29 23 18 12 18 9 4 2 3
6 7 7 10 17 21 23 21 17 15 13 11 10 9 11 16 23 28 28 27 29 31 29 32 35 38 40 39 36 33 33 35 37 30 24 22 19 16 14 10 10 2 3
6 7 10 13 16 18 19 17 15 15 14 15 14 11 11 14 17 20 22 26 29 30 26 26 27 31 32 33 32 30 34 34 31 27 23 21 17 14 12 10 9 6 4
9 9 9 13 15 18 18 14 9 13 16 16 15 15 12 11 13 17 20 22 24 23 22 20 22 24 26 26 25 26 27 27 24 23 21 18 14 12 9 11 9 7 4
9 10 12 14 16 15 14 13 13 14 16 17 17 16 15 13 11 11 13 15 16 15 15 16 17 20 22 23 24 24 24 24 23 22 21 19 15 13 11 7 6 4 5
7 8 11 13 15 15 16 17 17 16 15 15 14 13 14 12 10 8 7 5 7 9 10 12 15 17 20 21 23 24 24 26 25 20 18 17 12 10 6 3 2 5 3
11 11 12 14 13 15 15 16 18 18 17 15 13 11 10 8 6 5 3 1 4 8 12 15 17 20 21 22 23 25 27 25 22 19 14 12 9 5 2 3 3 4 6
7 8 6 9 12 12 13 17 19 20 19 17 15 13 11 8 8 8 10 12 14 17 19 19 22 24 26 26 27 27 25 22 17 13 11 8 7 5 2 4 6 5 8
6 6 7 7 12 13 13 15 17 18 16 17 15 13 11 10 10 12 12 13 16 18 21 24 24 25 29 29 27 24 21 18 15 10 6 5 3 2 2 4 3 6 9
5 6 7 9 10 10 11 13 15 16 17 16 15 12 11 12 15 17 19 21 22 23 26 30 31 28 26 21 20 20 19 16 12 10 6 5 4 4 2 2 3 5 8
4 6 6 7 7 8 7 11 13 14 15 14 13 13 12 17 17 17 20 23 25 25 26 28 28 27 24 21 19 17 16 14 12 9 7 6 2 1 5 5 5 6 8
4 5 6 6 5 6 7 11 12 12 13 14 13 12 13 18 18 20 22 23 24 26 25 26 26 25 21 18 17 16 14 13 10 7 5 3 3 5 6 7 8 9 9
3 4 4 4 5 9 8 10 12 14 14 14 14 14 16 20 21 23 24 24 26 26 24 23 23 22 18 15 15 13 11 9 7 5 4 6 6 6 6 8 9 9 12
4 3 3 4 6 8 7 10 11 13 13 12 13 14 16 19 20 21 22 22 23 23 22 20 18 15 15 9 8 6 8 6 4 4 5 6 6 7 8 6 6 7 13
4 4 5 4 5 7 10 13 12 14 12 14 16 18 19 21 20 20 19 19 19 19 18 19 17 16 16 12 9 7 8 5 5 4 4 6 6 8 9 9 10 9 11
5 5 6 5 7 9 12 14 15 11 15 18 19 19 19 18 17 17 16 16 17 17 15 14 13 11 9 8 9 7 7 5 5 5 7 6 8 8 8 7 7 8 10
6 6 8 9 9 9 11 17 14 15 17 18 18 17 15 14 13 14 13 13 10 10 9 9 9 9 8 7 7 7 7 5 4 5 4 8 8 6 5 5 7 7 9
9 10 8 9 11 11 13 14 13 13 16 17 16 15 15 14 13 12 11 10 9 8 8 7 7 7 6 5 5 6 8 5 8 6 8 7 5 5 5 6 6 7 7
10 11 12 11 12 12 12 11 11 14 16 15 14 14 13 13 13 12 10 10 10 8 7 6 4 4 5 6 5 7 6 6 6 5 5 5 6 7 7 8 8 8 9
14 11 13 15 13 13 12 11 12 12 14 14 13 12 12 11 11 12 14 10 8 7 6 5 5 3 3 4 5 6 5 4 3 3 5 5 6 7 9 10 12 11 11
Wind_Direction
282 284 287 285 277 267 258 247 239 235 230 218 219 221 219 231 234 240 239 237 238 236 232 234 232 228 225 221 218 213 213 211 201 187 205 219 223 223 221 214 210 209 208
320 311 298 287 273 267 261 256 248 241 234 224 219 216 219 229 235 234 236 239 240 237 232 232 232 229 226 222 217 214 207 209 198 178 146 201 220 225 220 216 216 215 213
352 358 351 344 313 282 268 258 255 252 241 231 225 218 224 224 226 234 239 236 240 237 234 230 230 228 225 224 220 218 213 194 201 199 174 164 213 156 213 219 219 219 219
358 351 3 12 14 1 306 271 260 254 247 238 222 217 219 225 226 228 235 235 236 240 236 234 231 229 225 224 225 223 218 211 196 205 219 233 155 169 176 223 220 220 221
343 350 348 358 18 19 22 356 298 270 255 248 235 227 221 226 228 230 233 236 245 243 240 236 231 230 227 226 225 223 219 217 210 200 195 220 220 214 126 185 194 224 222
350 352 359 7 11 17 17 13 15 353 292 251 242 236 236 231 229 232 232 237 244 244 241 238 235 232 230 229 227 226 223 219 217 216 213 198 181 199 177 155 226 197 209
360 2 3 360 1 6 4 3 360 4 3 347 291 254 247 247 247 243 243 238 240 239 241 238 233 233 234 231 225 222 223 221 217 221 221 220 215 210 203 171 143 141 194
360 355 349 351 353 355 356 353 350 351 353 347 328 306 283 264 257 258 255 246 245 253 251 245 232 232 231 229 225 219 227 219 218 220 224 218 217 208 202 181 157 146 190
358 341 344 342 340 347 353 347 343 342 350 347 340 316 292 279 274 271 268 263 262 260 255 250 239 230 227 224 217 216 216 216 213 211 210 206 196 188 185 187 182 149 182
359 354 345 336 344 346 341 345 351 345 343 347 346 338 322 303 284 271 265 264 261 256 255 246 235 225 222 216 212 206 206 202 194 192 185 176 172 166 156 152 147 137 100
354 347 344 351 354 356 1 2 5 360 354 351 347 343 340 334 317 296 279 265 256 248 241 236 224 216 209 205 201 195 186 182 173 168 166 158 158 150 145 142 141 163 196
355 346 355 9 11 9 13 16 13 10 5 358 353 354 357 355 347 344 327 290 252 223 211 206 198 193 189 185 180 169 167 164 154 146 148 135 138 145 150 167 238 252 256
2 7 13 14 10 11 13 18 22 19 15 14 11 13 14 10 13 20 23 215 185 168 163 166 167 164 158 155 155 153 147 142 142 138 135 132 139 144 195 243 257 264 244
6 7 347 10 19 15 18 25 27 29 26 31 36 32 37 47 73 90 107 121 134 136 132 138 139 144 142 142 141 137 131 129 131 135 140 147 164 152 193 259 262 260 266
5 3 8 9 17 8 25 32 33 34 35 39 43 42 61 72 92 107 114 118 122 123 127 127 126 128 130 131 130 130 132 131 128 126 138 137 126 139 215 233 277 267 272
5 12 14 18 10 356 20 36 35 35 41 45 42 42 60 80 79 85 90 101 102 107 116 116 119 117 112 122 127 129 124 123 122 108 106 127 117 109 214 276 286 281 284
27 22 11 16 2 8 16 47 48 44 49 50 49 47 58 75 85 98 105 101 104 108 102 104 110 102 103 103 113 115 105 105 107 121 131 139 124 12 318 325 310 296 292
35 35 27 20 17 32 39 60 60 60 65 60 61 72 77 84 87 91 91 93 102 107 110 113 112 106 97 101 100 103 109 107 104 108 103 69 359 338 329 324 312 302 293
71 58 52 28 28 46 50 66 69 73 72 70 72 80 93 99 104 104 105 107 109 108 104 104 102 99 97 99 100 96 100 99 99 91 41 357 340 339 326 317 307 305 300
77 86 71 57 53 50 57 76 75 78 70 76 85 96 105 107 104 105 104 105 103 101 102 96 94 97 102 98 114 93 85 83 76 22 5 355 334 333 324 318 299 291 302
99 101 96 85 71 77 96 90 84 77 89 94 97 101 103 104 105 104 102 100 97 101 100 100 103 102 102 92 85 71 58 56 22 6 342 345 343 325 312 306 300 299 312
91 104 106 91 89 99 106 94 85 101 108 107 103 101 98 97 98 99 101 108 115 110 105 101 92 85 86 74 66 62 47 20 6 358 345 339 327 323 321 317 315 307 297
136 118 115 101 92 109 111 107 115 119 115 110 104 100 99 98 98 99 102 103 100 95 91 86 81 71 72 73 54 42 20 11 6 343 338 335 335 334 327 334 318 311 311
148 145 133 111 111 121 119 117 125 123 119 113 108 106 104 104 102 102 102 102 100 98 95 89 82 69 71 61 36 23 9 6 351 338 335 337 333 329 328 333 335 327 317
162 154 144 137 131 130 131 138 139 137 125 120 118 116 114 112 108 97 86 90 82 75 83 79 78 67 51 21 7 358 354 353 348 317 332 356 354 346 344 345 340 334 331
158 151 148 144 146 145 145 151 151 149 137 129 128 129 129 125 117 111 103 84 89 86 79 62 43 54 14 2 358 349 346 345 337 337 354 349 339 331 330 335 330 329 330